Butler, PA

8:48 PM EDT on May 24, 2017 (GMT -0400)
Butler County-Scholter

Weather History for KBTP - September, 2012

Change the Weather History Date:

Saturday, September 22, 2012

  Actual Average Record
Temperature  
Mean Temperature 57 °F -  
Max Temperature 68 °F 68 °F 88 °F (1978)
Min Temperature 46 °F 48 °F 33 °F (1999)
Degree Days  
Heating Degree Days 8    
Growing Degree Days 7 (Base 50)    
Moisture  
Dew Point 50 °F    
Average Humidity 74    
Maximum Humidity 94    
Minimum Humidity 45    
Precipitation  
Precipitation 0.22 in - - ()
Sea Level Pressure  
Sea Level Pressure 29.86 in    
Wind  
Wind Speed 10 mph (WSW)    
Max Wind Speed 24 mph    
Max Gust Speed 31 mph    
Visibility 10 miles    
Events      
Averages and records for this station are not official NWS values.
T = Trace of Precipitation, MM = Missing Value Source: NWS Daily Summary

Daily Weather History Graph

Daily Weather History Graph

Search for Another Location

Airport or City:

Trip Planner

Search our weather history database for the weather conditions in past years. The results will help you decide how hot, cold, wet, or windy it might be!

Date:

Astronomy

Sep. 22, 2012 Rise Set
Actual Time 7:07 AM EDT 7:16 PM EDT
Civil Twilight 6:40 AM EDT 7:43 PM EDT
Nautical Twilight 6:08 AM EDT 8:15 PM EDT
Astronomical Twilight 5:35 AM EDT 8:47 PM EDT
Moon 2:26 PM EDT (9/22) No Moon Set
Length of Visible Light 13h 03m
Length of Day
12h 08m
Waxing Crescent, 48% of the Moon is Illuminated
Sep 22
Waxing Crescent
Sep 22
First Quarter
Sep 29
Full
Oct 8
Last Quarter
Oct 15
New

Hourly Weather History & Observations

Time (EDT) Temp. Windchill Dew Point Humidity Pressure Visibility Wind Dir Wind Speed Gust Speed Precip Events Conditions
12:15 AM 62.6 °F - 51.8 °F 68% 29.79 in 10.0 mi ESE 8.1 mph - N/A   Clear
12:35 AM 62.6 °F - 51.8 °F 68% 29.77 in 10.0 mi ESE 9.2 mph - N/A   Clear
12:55 AM 62.6 °F - 53.6 °F 72% 29.76 in 10.0 mi SSE 8.1 mph - N/A   Scattered Clouds
1:15 AM 62.6 °F - 53.6 °F 72% 29.75 in 10.0 mi SE 8.1 mph - N/A   Mostly Cloudy
1:35 AM 64.4 °F - 53.6 °F 68% 29.75 in 10.0 mi South 9.2 mph 17.3 mph N/A   Mostly Cloudy
1:55 AM 64.4 °F - 53.6 °F 68% 29.75 in 10.0 mi South 12.7 mph 20.7 mph N/A   Mostly Cloudy
2:15 AM 66.2 °F - 53.6 °F 64% 29.74 in 10.0 mi South 13.8 mph 24.2 mph N/A   Mostly Cloudy
2:35 AM 66.2 °F - 53.6 °F 64% 29.73 in 10.0 mi South 15.0 mph 27.6 mph N/A   Partly Cloudy
2:55 AM 66.2 °F - 53.6 °F 64% 29.72 in 10.0 mi South 15.0 mph 23.0 mph N/A   Partly Cloudy
3:15 AM 66.2 °F - 53.6 °F 64% 29.73 in 10.0 mi South 13.8 mph 27.6 mph N/A   Partly Cloudy
3:35 AM 66.2 °F - 53.6 °F 64% 29.72 in 10.0 mi South 18.4 mph 24.2 mph N/A   Mostly Cloudy
3:55 AM 66.2 °F - 51.8 °F 60% 29.72 in 10.0 mi SSW 16.1 mph 21.9 mph N/A   Mostly Cloudy
4:15 AM 68.0 °F - 51.8 °F 56% 29.73 in 10.0 mi SSW 13.8 mph 20.7 mph N/A   Mostly Cloudy
4:35 AM 64.4 °F - 53.6 °F 68% 29.77 in 10.0 mi West 11.5 mph 23.0 mph N/A   Overcast
4:55 AM 62.6 °F - 53.6 °F 72% 29.77 in 10.0 mi West 9.2 mph - N/A   Overcast
5:15 AM 60.8 °F - 51.8 °F 72% 29.78 in 10.0 mi West 8.1 mph - N/A   Overcast
5:35 AM 60.8 °F - 51.8 °F 72% 29.79 in 10.0 mi West 8.1 mph - N/A   Overcast
5:55 AM 57.2 °F - 53.6 °F 88% 29.79 in 5.0 mi West 10.4 mph 17.3 mph N/A   Overcast
6:15 AM 57.2 °F - 53.6 °F 88% 29.80 in 7.0 mi SW 11.5 mph - 0.04 in   Overcast
6:35 AM 57.2 °F - 55.4 °F 94% 29.81 in 7.0 mi SW 12.7 mph 18.4 mph 0.09 in   Overcast
6:55 AM 57.2 °F - 55.4 °F 94% 29.80 in 9.0 mi SSW 10.4 mph 18.4 mph 0.10 in   Overcast
7:15 AM 57.2 °F - 55.4 °F 94% 29.81 in 10.0 mi SSW 9.2 mph - N/A   Mostly Cloudy
7:35 AM 57.2 °F - 55.4 °F 94% 29.81 in 10.0 mi SW 9.2 mph - N/A   Mostly Cloudy
7:55 AM 57.2 °F - 55.4 °F 94% 29.82 in 10.0 mi SW 10.4 mph 16.1 mph N/A   Overcast
8:15 AM 59.0 °F - 55.4 °F 88% 29.82 in 10.0 mi SW 9.2 mph - N/A   Overcast
8:35 AM 59.0 °F - 55.4 °F 88% 29.82 in 10.0 mi SW 9.2 mph - N/A   Overcast
8:55 AM 59.0 °F - 55.4 °F 88% 29.82 in 10.0 mi SW 9.2 mph - N/A   Overcast
9:15 AM 59.0 °F - 55.4 °F 88% 29.83 in 10.0 mi SW 9.2 mph - N/A   Overcast
9:35 AM 60.8 °F - 55.4 °F 82% 29.83 in 10.0 mi SW 6.9 mph - N/A   Overcast
9:55 AM 59.0 °F - 55.4 °F 88% 29.83 in 10.0 mi SW 6.9 mph - N/A   Overcast
10:15 AM 60.8 °F - 55.4 °F 82% 29.83 in 10.0 mi SW 6.9 mph - N/A   Overcast
10:55 AM 59.0 °F - 55.4 °F 88% 29.84 in 10.0 mi West 9.2 mph - N/A   Overcast
11:15 AM 60.8 °F - 55.4 °F 82% 29.85 in 10.0 mi West 16.1 mph 21.9 mph N/A   Overcast
11:35 AM 62.6 °F - 55.4 °F 77% 29.85 in 10.0 mi WSW 12.7 mph 19.6 mph N/A   Overcast
11:55 AM 62.6 °F - 55.4 °F 77% 29.85 in 10.0 mi WSW 12.7 mph 18.4 mph N/A   Mostly Cloudy
12:15 PM 64.4 °F - 55.4 °F 73% 29.85 in 10.0 mi West 12.7 mph 19.6 mph N/A   Mostly Cloudy
12:35 PM 62.6 °F - 51.8 °F 68% 29.86 in 10.0 mi West 11.5 mph 18.4 mph N/A   Mostly Cloudy
12:55 PM 60.8 °F - 53.6 °F 77% 29.87 in 10.0 mi West 12.7 mph 16.1 mph N/A   Mostly Cloudy
1:15 PM 62.6 °F - 53.6 °F 72% 29.86 in 10.0 mi WNW 10.4 mph 20.7 mph N/A   Mostly Cloudy
1:35 PM 62.6 °F - 51.8 °F 68% 29.86 in 10.0 mi West 11.5 mph 21.9 mph N/A   Mostly Cloudy
2:15 PM 62.6 °F - 51.8 °F 68% 29.87 in 10.0 mi West 8.1 mph 20.7 mph N/A   Mostly Cloudy
2:35 PM 64.4 °F - 51.8 °F 64% 29.87 in 10.0 mi West 16.1 mph 21.9 mph N/A   Mostly Cloudy
2:55 PM 64.4 °F - 51.8 °F 64% 29.87 in 10.0 mi West 11.5 mph 17.3 mph N/A   Mostly Cloudy
3:15 PM 64.4 °F - 48.2 °F 56% 29.87 in 10.0 mi West 8.1 mph 17.3 mph N/A   Partly Cloudy
3:35 PM 64.4 °F - 50.0 °F 59% 29.87 in 10.0 mi West 15.0 mph 21.9 mph N/A   Partly Cloudy
3:55 PM 64.4 °F - 46.4 °F 52% 29.88 in 10.0 mi West 11.5 mph 17.3 mph N/A   Clear
4:15 PM 64.4 °F - 46.4 °F 52% 29.88 in 10.0 mi West 10.4 mph - N/A   Clear
4:35 PM 64.4 °F - 46.4 °F 52% 29.87 in 10.0 mi SW 12.7 mph 18.4 mph N/A   Clear
4:55 PM 64.4 °F - 46.4 °F 52% 29.86 in 10.0 mi WSW 10.4 mph - N/A   Clear
5:15 PM 66.2 °F - 44.6 °F 46% 29.86 in 10.0 mi SW 11.5 mph 17.3 mph N/A   Clear
5:35 PM 64.4 °F - 42.8 °F 45% 29.86 in 10.0 mi SSW 12.7 mph 18.4 mph N/A   Clear
5:55 PM 64.4 °F - 42.8 °F 45% 29.87 in 10.0 mi SW 12.7 mph 17.3 mph N/A   Clear
6:15 PM 64.4 °F - 42.8 °F 45% 29.86 in 10.0 mi SW 6.9 mph 19.6 mph N/A   Clear
6:35 PM 62.6 °F - 42.8 °F 48% 29.87 in 10.0 mi SW 5.8 mph - N/A   Clear
6:55 PM 62.6 °F - 42.8 °F 48% 29.87 in 10.0 mi SSW 8.1 mph - N/A   Scattered Clouds
7:15 PM 60.8 °F - 44.6 °F 55% 29.95 in 9.0 mi West 24.2 mph 31.1 mph 0.01 in   Mostly Cloudy
7:35 PM 51.8 °F - 46.4 °F 82% 29.96 in 10.0 mi WNW 11.5 mph 24.2 mph 0.10 in   Overcast
7:55 PM 50.0 °F - 46.4 °F 87% 29.97 in 9.0 mi NNW 5.8 mph 19.6 mph 0.11 in   Overcast
8:15 PM 48.2 °F - 44.6 °F 87% 29.97 in 10.0 mi WNW 3.5 mph - N/A   Overcast
8:35 PM 48.2 °F - 44.6 °F 87% 29.99 in 10.0 mi West 3.5 mph - N/A   Overcast
8:55 PM 48.2 °F - 44.6 °F 87% 30.00 in 10.0 mi West 4.6 mph - 0.01 in   Overcast
9:15 PM 48.2 °F - 44.6 °F 87% 30.00 in 10.0 mi Calm Calm - N/A   Mostly Cloudy
9:35 PM 48.2 °F - 44.6 °F 87% 30.03 in 10.0 mi West 5.8 mph - N/A   Scattered Clouds
9:55 PM 48.2 °F - 44.6 °F 87% 30.04 in 10.0 mi West 4.6 mph - N/A   Scattered Clouds
10:15 PM 48.2 °F - 44.6 °F 87% 30.04 in 10.0 mi West 3.5 mph - N/A   Mostly Cloudy
10:35 PM 46.4 °F 45.2 °F 44.6 °F 93% 30.04 in 10.0 mi WSW 3.5 mph - N/A   Scattered Clouds
10:55 PM 46.4 °F 43.5 °F 44.6 °F 93% 30.05 in 10.0 mi West 5.8 mph - N/A   Mostly Cloudy
11:15 PM 46.4 °F 44.3 °F 42.8 °F 87% 30.06 in 10.0 mi West 4.6 mph - N/A   Partly Cloudy
11:35 PM 46.4 °F 44.3 °F 42.8 °F 87% 30.07 in 10.0 mi WSW 4.6 mph - N/A   Clear
11:55 PM 46.4 °F 44.3 °F 44.6 °F 93% 30.08 in 10.0 mi WSW 4.6 mph - N/A   Mostly Cloudy